Home   Weather   Achim   Past weeks

Flag for Germany Past Weather in Achim, Lower Saxony, Germany — Yesterday and Last 2 Weeks

Now
59 °F

Rain showers. Scattered clouds.


Feels Like: 55 °F
Forecast: 54 / 65 °F
Wind: 23 mph from West

Location: Bremen Airport

Current Time: Aug 19, 2017 at 7:15:38 pm

Latest Report: Aug 19, 2017 at 6:33 pm


Visibility: N/A

Pressure: 30.01 "Hg

Humidity: 77%

Dew Point: 52 °F

Location of AchimLocation

Past Weather in Achim — Graph

°F

Achim Temperature Yesterday

Maximum temperature yesterday: 70 °F (at 2:20 pm)
Minimum temperature yesterday: 59 °F (at 6:20 am)
Average temperature yesterday: 64 °F

High & Low Weather Summary for the Past Weeks

 TemperatureHumidityPressure
High79 °F (Aug 15, 12:20 pm)100% (Aug 7, 2:20 am)30.24 "Hg (Aug 7, 2:20 am)
Low45 °F (Aug 14, 2:20 am)38% (Aug 7, 2:20 pm)29.77 "Hg (Aug 8, 4:50 pm)
Average62 °F79%30.01 "Hg
* Reported Aug 4 5:20 pm — Aug 19 5:50 pm, Achim. Weather by CustomWeather, © 2017

Note: Actual official high and low records may vary slightly from our data, if they occured in-between our weather recording intervals... More about our weather records

Advertising

Achim Weather History for the Previous 24 Hours

Scroll right to see more
 ConditionsComfort  
Time TempWeatherWind HumidityBarometerVisibility
5:50 pm
Sat, Aug 19
66 °FScattered clouds.16 mph64%29.98 "HgN/A
5:20 pm64 °FScattered clouds.14 mph73%29.98 "HgN/A
4:50 pm64 °FScattered clouds.15 mph68%29.98 "HgN/A
4:20 pm64 °FPartly sunny.16 mph68%29.98 "HgN/A
3:50 pm64 °FPartly sunny.18 mph68%29.95 "HgN/A
3:20 pm66 °FScattered clouds.17 mph64%29.95 "HgN/A
2:50 pm66 °FScattered clouds.16 mph64%29.95 "HgN/A
2:20 pm64 °FScattered clouds.18 mph68%29.95 "HgN/A
1:50 pm64 °FBroken clouds.17 mph68%29.95 "HgN/A
1:23 pm63 °FBroken clouds.16 mph73%29.95 "HgN/A
1:20 pm63 °FBroken clouds.18 mph73%29.95 "HgN/A
12:50 pm61 °FPartly sunny.9 mph77%29.95 "HgN/A
12:20 pm59 °FBroken clouds.14 mph82%29.92 "HgN/A
11:50 am59 °FPartly sunny.18 mph82%29.92 "HgN/A
11:20 am59 °FPartly sunny.14 mph88%29.92 "HgN/A
10:50 am57 °FPartly sunny.14 mph94%29.92 "HgN/A
10:20 am57 °FSprinkles. Partly sunny.15 mph94%29.92 "HgN/A
9:50 am59 °FPartly sunny.15 mph82%29.92 "HgN/A
8:50 am57 °FScattered clouds.12 mph88%29.92 "HgN/A
8:20 am57 °FScattered clouds.10 mph88%29.92 "HgN/A
7:50 am55 °FScattered clouds.9 mph94%29.92 "HgN/A
7:20 am55 °FPassing clouds.8 mph88%29.89 "HgN/A
6:50 am54 °FSunny.9 mph94%29.89 "Hg10 mi
6:20 am54 °FPassing clouds.9 mph94%29.89 "HgN/A
5:50 am55 °FPassing clouds.12 mph88%29.89 "HgN/A
5:20 am54 °FClear.10 mph94%29.86 "Hg10 mi
4:50 am55 °FClear.12 mph94%29.86 "Hg10 mi
4:20 am55 °FPassing clouds.12 mph94%29.86 "HgN/A
3:50 am55 °FPassing clouds.10 mph94%29.86 "HgN/A
3:20 am55 °FClear.12 mph94%29.86 "Hg10 mi
2:50 am55 °FClear.10 mph94%29.86 "Hg10 mi
2:20 am57 °FPassing clouds.10 mph94%29.86 "HgN/A
1:50 am57 °FPassing clouds.9 mph94%29.86 "HgN/A
1:20 am57 °FPartly cloudy.10 mph94%29.86 "HgN/A
12:50 am57 °FLight rain. Partly cloudy.7 mph88%29.83 "HgN/A
12:20 am59 °FLight rain. Partly cloudy.12 mph88%29.86 "HgN/A
11:50 pm
Fri, Aug 18
61 °FClear.10 mph94%29.86 "Hg10 mi
11:20 pm61 °FClear.7 mph94%29.83 "Hg10 mi
10:50 pm59 °FClear.6 mph100%29.86 "Hg10 mi
10:20 pm59 °FClear.5 mph94%29.83 "Hg10 mi
9:53 pm59 °FClear.5 mph100%29.83 "Hg10 mi
9:20 pm61 °FClear.5 mph94%29.83 "Hg10 mi
9:00 pm61 °FPassing clouds.6 mph94%29.83 "HgN/A
8:20 pm61 °FPartly sunny.5 mph94%29.83 "HgN/A
7:50 pm61 °FBroken clouds.3 mph94%29.83 "HgN/A
7:20 pm61 °FSprinkles. Broken clouds.5 mph94%29.83 "HgN/A
Weather by CustomWeather, © 2017

See weather overviewHow to use our weather pages